User: anonymous   Login
Location: Unspecified
(0.0000°N, 0.0000°E)
Time: 02:13:57
(UTC+02:00)
Language:

SJ-6B - Orbit

View from above orbital plane
View from above orbital plane
View from above satellite
View from above satellite

Ground track
Ground track

The orbit data is extracted from the following two-line orbital elements,

1 28415U 04035C   15238.64657608 +.00001251 +00000-0 +90463-4 0  9998
2 28415 097.7953 251.6471 0053628 198.5046 161.4231 15.04859836599184
Epoch (UTC): 26 August 2015 15:31:04
Eccentricity: 0.0053628
inclination: 97.7953°
perigee height: 515 km
apogee height: 589 km
right ascension of ascending node: 251.6471°
argument of perigee: 198.5046°
revolutions per day: 15.04859836
mean anomaly at epoch: 161.4231°
orbit number at epoch: 59918

The dashed part of the orbit path shows where the satellite is in the earth's shadow,  

DLR